This demonstration page uses our WeatherBlox Daily Observations layout. Learn more.

Left ArrowRight Arrow

Hourly Observations for May 25, 2015

Temp ( °F °C ) Dew Point ( °F °C ) Humidity (%) Winds ( mph kmh ) Pressure ( in mb ) Visibility ( mi km ) Precip ( " mm )
12:53 am 00:53 Clear 73 22.8 52 11.1 48 48 SSE 3 6 30.11 1020 10 16 0.00 0.00
1:53 am 01:53 Clear 73 22.8 53 11.7 50 50 Calm 30.09 1019 10 16 0.00 0.00
2:53 am 02:53 Clear 72 22.2 55 12.8 55 55 S 3 6 30.08 1019 10 16 0.00 0.00
3:53 am 03:53 Partly Cloudy 71 21.7 55 12.8 57 57 VRB 3 6 30.07 1018 10 16 0.00 0.00
4:53 am 04:53 Clear 71 21.7 55 12.8 57 57 SE 3 6 30.07 1018 10 16 0.00 0.00
5:53 am 05:53 Clear 70 21.1 56 13.3 61 61 VRB 3 6 30.08 1019 10 16 0.00 0.00
6:53 am 06:53 Mostly Cloudy with Light Rain 71 21.7 58 14.4 63 63 VRB 6 9 30.10 1019 10 16 0.00 0.03
7:53 am 07:53 Mostly Sunny 70 21.1 59 15 68 68 SE 3 6 30.11 1020 10 16 0.00 0.03
8:53 am 08:53 Mostly Cloudy 72 22.2 58 14.4 61 61 SSW 13 20 30.12 1020 10 16 0.00 0.03
9:48 am 09:48 Cloudy with Rain 66 19 64 18 94 94 SW 10 17 30.12 1020 2 3 0.06 1.52
9:53 am 09:53 Cloudy with Heavy Rain 67 19.4 65 18.3 93 93 SSW 8 13 30.15 1021 1 2 0.09 2.29
10:09 am 10:09 Cloudy with Light Rain 67 19.4 65 18.3 93 93 SSW 8 13 30.12 1020 2 3 0.06 1.52
10:17 am 10:17 Cloudy with Light Rain 67 19.4 65 18.3 93 93 VRB 6 9 30.12 1020 6 10 0.06 1.52
10:53 am 10:53 Cloudy with Light Rain 68 20 65 18.3 90 90 VRB 3 6 30.13 1020 10 16 0.07 1.78
11:53 am 11:53 Mostly Sunny 71 21.7 64 17.8 79 79 VRB 7 11 30.13 1020 10 16 0.00 0.03
12:53 pm 12:53 Mostly Cloudy 72 22.2 64 17.8 76 76 SSW 8 13 30.13 1020 10 16 0.00 0.00
1:15 pm 13:15 Mostly Cloudy 72 22.2 63 17.2 73 73 SW 13 20 30.12 1020 10 16 0.00 0.00
1:53 pm 13:53 Cloudy with Light Rain 71 21.7 65 18.3 81 81 SW 10 17 30.14 1021 10 16 0.00 0.03
2:53 pm 14:53 Cloudy with Light Rain 73 22.8 66 18.9 79 79 SW 8 13 30.14 1021 10 16 0.00 0.03
3:53 pm 15:53 Mostly Cloudy 75 23.9 66 18.9 74 74 SW 8 13 30.12 1020 10 16 0.00 0.03
4:01 pm 16:01 Partly Cloudy 77 25 66 18.9 69 69 SSW 7 11 30.09 1019 10 16 0.00 0.00
4:53 pm 16:53 Mostly Sunny 78 25.6 65 18.3 64 64 SSW 17 28 30.10 1019 10 16 0.00 0.00
5:53 pm 17:53 Mostly Cloudy 77 25 65 18.3 66 66 SSW 10 17 30.09 1019 10 16 0.00 0.00
6:53 pm 18:53 Partly Cloudy 76 24.4 64 17.8 67 67 SW 10 17 30.09 1019 10 16 0.00 0.00
7:53 pm 19:53 Cloudy 75 23.9 64 17.8 69 69 SSW 7 11 30.09 1019 10 16 0.00 0.00
8:53 pm 20:53 Cloudy 73 22.8 64 17.8 74 74 Calm 30.08 1019 10 16 0.00 0.00
9:53 pm 21:53 Cloudy 72 22.2 65 18.3 79 79 VRB 5 7 30.08 1019 10 16 0.00 0.03
10:53 pm 22:53 Mostly Cloudy 69 20.6 65 18.3 87 87 Calm 30.10 1019 10 16 0.00 0.00
11:53 pm 23:53 Mostly Cloudy 71 21.7 64 17.8 79 79 SSW 5 7 30.11 1020 10 16 0.00 0.00

Powered by AerisWeather